Fort Campbell, KY

5:35 PM CST on February 27, 2017 (GMT -0600)
Campbell Army Air Field

Weather History for KHOP - July, 2013

Change the Weather History Date:

Sunday, July 7, 2013

  Actual Average Record
Temperature  
Mean Temperature 76 °F -  
Max Temperature 86 °F 85 °F 103 °F (2012)
Min Temperature 65 °F 66 °F 60 °F (2006)
Cooling Degree Days 10    
Growing Degree Days 26 (Base 50)    
Moisture  
Dew Point 70 °F    
Average Humidity 84    
Maximum Humidity 100    
Minimum Humidity 54    
Precipitation  
Precipitation 0.06 in - - ()
Sea Level Pressure  
Sea Level Pressure 30.09 in    
Wind  
Wind Speed 6 mph (SSW)    
Max Wind Speed 10 mph    
Max Gust Speed -    
Visibility 10 miles    
Events Rain    
Averages and records for this station are not official NWS values.
T = Trace of Precipitation, MM = Missing Value Source: NWS Daily Summary

Daily Weather History Graph

Daily Weather History Graph

Search for Another Location

Airport or City:

Trip Planner

Search our weather history database for the weather conditions in past years. The results will help you decide how hot, cold, wet, or windy it might be!

Date:

Astronomy

Jul. 07, 2013 Rise Set
Actual Time 5:38 AM CDT 8:11 PM CDT
Civil Twilight 5:07 AM CDT 8:41 PM CDT
Nautical Twilight 4:30 AM CDT 9:19 PM CDT
Astronomical Twilight 3:48 AM CDT 10:00 PM CDT
Moon 5:12 AM CDT (7/7) 7:37 PM CDT (7/7)
Length of Visible Light 15h 33m
Length of Day
14h 33m
Waning Crescent, 0% of the Moon is Illuminated
Jul 7
Waning Crescent
Jul 8
New
Jul 15
First Quarter
Jul 22
Full
Jul 29
Last Quarter

Hourly Weather History & Observations

Time (CDT) Temp. Heat Index Dew Point Humidity Pressure Visibility Wind Dir Wind Speed Gust Speed Precip Events Conditions
12:08 AM 66.2 °F - 66.2 °F 100% 30.09 in 9.0 mi ESE 8.1 mph - N/A Rain Light Rain
12:26 AM 66.2 °F - 66.2 °F 100% 30.07 in 9.0 mi ESE 10.4 mph - N/A Rain Light Rain
12:56 AM 66.2 °F - 66.2 °F 100% 30.06 in 10.0 mi SE 10.4 mph - N/A   Scattered Clouds
12:58 AM 66.2 °F - 66.2 °F 100% 30.06 in 10.0 mi SE 9.2 mph - 0.06 in   Scattered Clouds
1:58 AM 66.0 °F - 66.0 °F 100% 30.06 in 10.0 mi South 6.9 mph - 0.00 in   Overcast
2:58 AM 65.7 °F - 65.7 °F 100% 30.06 in 10.0 mi South 4.6 mph - N/A   Clear
3:58 AM 65.3 °F - 65.3 °F 100% 30.06 in 10.0 mi South 4.6 mph - N/A   Partly Cloudy
4:58 AM 65.1 °F - 65.1 °F 100% 30.06 in 10.0 mi SSW 3.5 mph - N/A   Partly Cloudy
5:58 AM 65.3 °F - 65.3 °F 100% 30.07 in 10.0 mi Calm Calm - N/A   Mostly Cloudy
6:58 AM 66.7 °F - 66.7 °F 100% 30.09 in 10.0 mi Variable 2.3 mph - N/A   Scattered Clouds
7:58 AM 71.4 °F - 70.3 °F 96% 30.12 in 10.0 mi SSW 5.8 mph - N/A   Partly Cloudy
8:58 AM 75.4 °F - 72.3 °F 90% 30.12 in 10.0 mi SSW 8.1 mph - N/A   Partly Cloudy
9:14 AM 75.2 °F - 71.6 °F 89% 30.13 in 10.0 mi WSW 5.8 mph - N/A   Mostly Cloudy
9:33 AM 75.2 °F - 73.4 °F 94% 30.13 in 10.0 mi West 4.6 mph - N/A   Mostly Cloudy
9:58 AM 78.1 °F - 72.9 °F 84% 30.13 in 10.0 mi SW 5.8 mph - N/A   Partly Cloudy
10:58 AM 79.9 °F - 73.9 °F 82% 30.12 in 10.0 mi Variable 5.8 mph - N/A   Clear
11:32 AM 80.6 °F 85.4 °F 73.4 °F 79% 30.13 in 10.0 mi Variable 3.5 mph - N/A   Mostly Cloudy
11:38 AM 78.8 °F - 73.4 °F 83% 30.13 in 10.0 mi Variable 4.6 mph - N/A   Scattered Clouds
11:58 AM 81.9 °F 87.0 °F 72.9 °F 74% 30.12 in 10.0 mi Variable 3.5 mph - N/A   Partly Cloudy
12:58 PM 83.3 °F 88.4 °F 71.8 °F 68% 30.10 in 10.0 mi NW 6.9 mph - N/A   Scattered Clouds
1:58 PM 84.6 °F 89.7 °F 71.1 °F 64% 30.09 in 10.0 mi Variable 4.6 mph - N/A   Scattered Clouds
2:58 PM 85.5 °F 90.4 °F 70.5 °F 61% 30.08 in 10.0 mi Variable 3.5 mph - N/A   Clear
3:58 PM 86.4 °F 90.4 °F 69.1 °F 56% 30.06 in 10.0 mi South 8.1 mph - N/A   Partly Cloudy
4:58 PM 85.8 °F 88.8 °F 67.5 °F 54% 30.05 in 10.0 mi SW 8.1 mph - N/A   Clear
5:58 PM 85.3 °F 89.4 °F 69.6 °F 59% 30.05 in 10.0 mi SW 5.8 mph - N/A   Clear
6:58 PM 84.2 °F 87.3 °F 68.0 °F 58% 30.05 in 10.0 mi SW 4.6 mph - N/A   Clear
7:58 PM 82.0 °F 85.7 °F 69.6 °F 66% 30.07 in 10.0 mi SW 2.3 mph - N/A   Clear
8:55 PM 78.8 °F - 71.6 °F 78% 30.09 in 9.0 mi Calm Calm - N/A   Clear
9:55 PM 77.0 °F - 73.4 °F 89% 30.11 in 10.0 mi SSW 2.3 mph - N/A   Clear
10:55 PM 75.2 °F - 73.4 °F 94% 30.12 in 10.0 mi SE 2.3 mph - N/A   Clear
11:55 PM 73.4 °F - 73.4 °F 100% 30.12 in 10.0 mi Calm Calm - N/A   Clear